Location: Poughquag
(41.6090°N, 73.6820°W)
Time: 22:01:00
(UTC-05:00)

Envisat - Pass Details

Date: 16 October 2024
Orbit: 761 x 763 km, 98.3° (Epoch: 10 November)

Event Time Altitude Azimuth Distance (km) Brightness Sun altitude
Rises 03:55:00 0° 15° (NNE) 3,234 6.7 -36.3°
Reaches altitude 10° 03:57:20 10° 17° (NNE) 2,304 5.8 -35.9°
Enters shadow 03:58:53 20° 20° (NNE) 1,702 5.1 -35.7°
